• In India
  • List of Countries
  • For 7 days
  • Water Temperature
  • Satellite Maps
  • Weather Map
  • Weather Widgets
  • user-avatar
    Login

    Hourly Weather Cumbitara

    Today, 23 October, Tuesday

    Time Temperature Precipitation Wind Pressure Humidity
    00:00 +14°C° 0.3 mm 0 mps 613 mmHg 89%
    01:00 +15°C° 0.3 mm 1 mps 613 mmHg 89%
    02:00 +14°C° 0.1 mm 1 mps 613 mmHg 89%
    03:00 +14°C° 0.1 mm 1 mps 613 mmHg 88%
    04:00 +14°C° 0.1 mm 1 mps 612 mmHg 88%
    05:00 +14°C° 0 mm 1 mps 613 mmHg 86%
    06:00 +15°C° 0 mm 1 mps 613 mmHg 84%
    07:00 +15°C° 0 mm 1 mps 614 mmHg 82%
    08:00 +18°C° 0 mm 1 mps 614 mmHg 73%
    09:00 +21°C° 0 mm 1 mps 615 mmHg 64%
    10:00 +23°C° 0 mm 1 mps 616 mmHg 56%
    11:00 +23°C° 0.1 mm 2 mps 616 mmHg 56%
    12:00 +24°C° 0.1 mm 2 mps 615 mmHg 56%
    13:00 +24°C° 0.1 mm 2 mps 615 mmHg 56%
    14:00 +23°C° 0.9 mm 2 mps 614 mmHg 63%
    15:00 +21°C° 0.9 mm 2 mps 613 mmHg 70%
    16:00 +19°C° 0.9 mm 2 mps 613 mmHg 76%
    17:00 +18°C° 1.5 mm 2 mps 613 mmHg 82%
    18:00 +18°C° 1.5 mm 1 mps 613 mmHg 87%
    19:00 +16°C° 1.5 mm 1 mps 613 mmHg 93%
    20:00 +16°C° 1 mm 1 mps 613 mmHg 92%
    21:00 +15°C° 1 mm 0 mps 613 mmHg 92%
    22:00 +14°C° 1 mm 0 mps 614 mmHg 91%
    23:00 +14°C° 0.6 mm 0 mps 614 mmHg 91%

    Tomorrow, 24 October, Wednesday

    Time Temperature Precipitation Wind Pressure Humidity
    00:00 +14°C° 0.6 mm 0 mps 613 mmHg 90%
    01:00 +14°C° 0.6 mm 0 mps 613 mmHg 90%
    02:00 +14°C° 0.3 mm 0 mps 613 mmHg 90%
    03:00 +14°C° 0.3 mm 0 mps 613 mmHg 90%
    04:00 +14°C° 0.3 mm 0 mps 612 mmHg 90%
    05:00 +14°C° 0.2 mm 0 mps 613 mmHg 89%
    06:00 +14°C° 0.2 mm 0 mps 613 mmHg 87%
    07:00 +14°C° 0.2 mm 0 mps 614 mmHg 86%
    08:00 +18°C° 0.1 mm 1 mps 614 mmHg 79%
    09:00 +20°C° 0.1 mm 1 mps 615 mmHg 71%
    10:00 +22°C° 0.1 mm 1 mps 616 mmHg 64%
    11:00 +21°C° 0.2 mm 2 mps 615 mmHg 63%
    12:00 +23°C° 0.2 mm 2 mps 615 mmHg 63%
    13:00 +23°C° 0.2 mm 2 mps 615 mmHg 62%
    14:00 +21°C° 1.5 mm 2 mps 614 mmHg 68%
    15:00 +20°C° 1.5 mm 2 mps 613 mmHg 74%
    16:00 +19°C° 1.5 mm 2 mps 612 mmHg 79%
    17:00 +18°C° 1.6 mm 2 mps 612 mmHg 84%
    18:00 +18°C° 1.6 mm 1 mps 612 mmHg 89%
    19:00 +16°C° 1.6 mm 1 mps 612 mmHg 94%
    20:00 +16°C° 1.4 mm 1 mps 613 mmHg 94%
    21:00 +15°C° 1.4 mm 0 mps 613 mmHg 94%
    22:00 +14°C° 1.4 mm 0 mps 614 mmHg 95%
    23:00 +14°C° 1 mm 0 mps 614 mmHg 95%

    Day after tomorrow, 25 October, Thursday

    Time Temperature Precipitation Wind Pressure Humidity
    00:00 +14°C° 1 mm 0 mps 613 mmHg 94%
    01:00 +14°C° 1 mm 0 mps 613 mmHg 94%
    02:00 +14°C° 0.6 mm 0 mps 613 mmHg 94%
    03:00 +14°C° 0.6 mm 0 mps 612 mmHg 93%
    04:00 +14°C° 0.6 mm 0 mps 612 mmHg 93%
    05:00 +14°C° 0.4 mm 0 mps 612 mmHg 91%
    06:00 +14°C° 0.4 mm 0 mps 613 mmHg 89%
    07:00 +14°C° 0.4 mm 0 mps 613 mmHg 87%
    08:00 +18°C° 0.1 mm 1 mps 614 mmHg 79%
    09:00 +20°C° 0.1 mm 1 mps 615 mmHg 71%
    10:00 +22°C° 0.1 mm 1 mps 616 mmHg 64%
    11:00 +21°C° 0.1 mm 2 mps 615 mmHg 63%
    12:00 +23°C° 0.1 mm 2 mps 615 mmHg 62%
    13:00 +24°C° 0.1 mm 2 mps 614 mmHg 61%
    14:00 +21°C° 1.4 mm 2 mps 614 mmHg 67%
    15:00 +20°C° 1.4 mm 2 mps 613 mmHg 73%
    16:00 +19°C° 1.4 mm 2 mps 612 mmHg 79%
    17:00 +18°C° 1.4 mm 2 mps 612 mmHg 83%
    18:00 +18°C° 1.4 mm 1 mps 612 mmHg 88%
    19:00 +16°C° 1.4 mm 1 mps 612 mmHg 93%
    20:00 +16°C° 1 mm 1 mps 612 mmHg 93%
    21:00 +15°C° 1 mm 0 mps 613 mmHg 94%
    22:00 +15°C° 1 mm 0 mps 613 mmHg 94%
    23:00 +14°C° 0.5 mm 0 mps 613 mmHg 95%

    26 October, Friday

    Time Temperature Precipitation Wind Pressure Humidity
    00:00 +14°C° 0.5 mm 0 mps 613 mmHg 95%
    01:00 +14°C° 0.5 mm 0 mps 612 mmHg 96%
    02:00 +14°C° 0.4 mm 0 mps 612 mmHg 96%
    03:00 +14°C° 0.4 mm 0 mps 612 mmHg 96%
    04:00 +14°C° 0.4 mm 0 mps 611 mmHg 96%
    05:00 +14°C° 0.3 mm 0 mps 612 mmHg 94%
    06:00 +14°C° 0.3 mm 0 mps 612 mmHg 93%
    07:00 +15°C° 0.3 mm 0 mps 613 mmHg 91%
    08:00 +18°C° 0 mm 1 mps 614 mmHg 85%
    09:00 +20°C° 0 mm 1 mps 614 mmHg 78%
    10:00 +21°C° 0 mm 1 mps 615 mmHg 71%
    11:00 +21°C° 0.4 mm 1 mps 615 mmHg 72%
    12:00 +20°C° 0.4 mm 2 mps 614 mmHg 72%
    13:00 +21°C° 0.4 mm 2 mps 614 mmHg 72%
    14:00 +20°C° 1.8 mm 2 mps 613 mmHg 75%
    15:00 +19°C° 1.8 mm 2 mps 612 mmHg 78%
    16:00 +19°C° 1.8 mm 2 mps 612 mmHg 81%
    17:00 +19°C° 1.7 mm 1 mps 612 mmHg 85%
    18:00 +18°C° 1.7 mm 1 mps 612 mmHg 88%
    19:00 +16°C° 1.7 mm 1 mps 613 mmHg 92%
    20:00 +16°C° 1.3 mm 1 mps 613 mmHg 92%
    21:00 +16°C° 1.3 mm 1 mps 613 mmHg 92%
    22:00 +16°C° 1.3 mm 1 mps 614 mmHg 92%
    23:00 +16°C° 0.8 mm 1 mps 613 mmHg 93%

    27 October, Saturday

    Time Temperature Precipitation Wind Pressure Humidity
    00:00 +15°C° 0.8 mm 0 mps 613 mmHg 93%
    01:00 +14°C° 0.8 mm 0 mps 612 mmHg 93%
    02:00 +14°C° 0.3 mm 0 mps 612 mmHg 93%
    03:00 +14°C° 0.3 mm 0 mps 612 mmHg 93%
    04:00 +14°C° 0.3 mm 0 mps 612 mmHg 93%
    05:00 +14°C° 0.1 mm 0 mps 612 mmHg 91%
    06:00 +15°C° 0.1 mm 0 mps 613 mmHg 90%
    07:00 +15°C° 0.1 mm 0 mps 613 mmHg 89%
    08:00 +19°C° 0.1 mm 1 mps 614 mmHg 82%
    09:00 +20°C° 0.1 mm 1 mps 615 mmHg 76%
    10:00 +21°C° 0.1 mm 2 mps 616 mmHg 69%
    11:00 +21°C° 0.5 mm 2 mps 615 mmHg 69%
    12:00 +21°C° 0.5 mm 2 mps 615 mmHg 69%
    13:00 +23°C° 0.5 mm 2 mps 614 mmHg 69%
    14:00 +21°C° 1.6 mm 2 mps 614 mmHg 72%
    15:00 +20°C° 1.6 mm 2 mps 613 mmHg 75%
    16:00 +20°C° 1.6 mm 2 mps 612 mmHg 78%
    17:00 +18°C° 1.4 mm 2 mps 613 mmHg 82%
    18:00 +18°C° 1.4 mm 1 mps 613 mmHg 87%
    19:00 +16°C° 1.4 mm 1 mps 613 mmHg 91%
    20:00 +16°C° 0.8 mm 1 mps 613 mmHg 91%
    21:00 +16°C° 0.8 mm 1 mps 614 mmHg 90%
    22:00 +16°C° 0.8 mm 1 mps 614 mmHg 90%
    23:00 +15°C° 0.5 mm 1 mps 614 mmHg 90%

    28 October, Sunday

    Time Temperature Precipitation Wind Pressure Humidity
    00:00 +15°C° 0.5 mm 1 mps 613 mmHg 89%
    01:00 +15°C° 0.5 mm 1 mps 613 mmHg 89%
    02:00 +15°C° 0.2 mm 1 mps 613 mmHg 88%
    03:00 +15°C° 0.2 mm 1 mps 612 mmHg 88%
    04:00 +15°C° 0.2 mm 1 mps 612 mmHg 88%
    05:00 +15°C° 0.1 mm 1 mps 613 mmHg 86%
    06:00 +15°C° 0.1 mm 1 mps 613 mmHg 84%
    07:00 +16°C° 0.1 mm 1 mps 614 mmHg 83%
    08:00 +19°C° 0 mm 1 mps 615 mmHg 77%
    09:00 +19°C° 0 mm 2 mps 615 mmHg 72%
    10:00 +21°C° 0 mm 2 mps 616 mmHg 66%
    11:00 +21°C° 0.2 mm 2 mps 615 mmHg 66%
    12:00 +23°C° 0.2 mm 2 mps 615 mmHg 66%
    13:00 +23°C° 0.2 mm 2 mps 614 mmHg 66%
    14:00 +21°C° 1.2 mm 2 mps 613 mmHg 70%
    15:00 +20°C° 1.2 mm 2 mps 613 mmHg 75%
    16:00 +19°C° 1.2 mm 2 mps 612 mmHg 79%
    17:00 +18°C° 1.6 mm 2 mps 613 mmHg 83%
    18:00 +18°C° 1.6 mm 1 mps 613 mmHg 88%
    19:00 +16°C° 1.6 mm 1 mps 613 mmHg 92%
    20:00 +16°C° 1.7 mm 1 mps 613 mmHg 92%
    21:00 +16°C° 1.7 mm 1 mps 614 mmHg 92%
    22:00 +16°C° 1.7 mm 1 mps 614 mmHg 93%
    23:00 +16°C° 1.4 mm 1 mps 614 mmHg 93%

    29 October, Monday

    Time Temperature Precipitation Wind Pressure Humidity
    00:00 +15°C° 1.4 mm 1 mps 613 mmHg 94%
    01:00 +15°C° 1.4 mm 1 mps 613 mmHg 94%
    02:00 +15°C° 1.1 mm 1 mps 613 mmHg 94%
    03:00 +15°C° 1.1 mm 1 mps 612 mmHg 94%
    04:00 +14°C° 1.1 mm 0 mps 612 mmHg 94%
    05:00 +14°C° 0.4 mm 0 mps 613 mmHg 92%
    06:00 +14°C° 0.4 mm 0 mps 613 mmHg 90%
    07:00 +15°C° 0.4 mm 0 mps 614 mmHg 88%
    08:00 +18°C° 0.2 mm 1 mps 614 mmHg 82%
    09:00 +20°C° 0.2 mm 1 mps 615 mmHg 77%
    10:00 +20°C° 0.2 mm 2 mps 615 mmHg 71%
    11:00 +20°C° 0.7 mm 2 mps 615 mmHg 71%
    12:00 +21°C° 0.7 mm 2 mps 614 mmHg 70%
    13:00 +21°C° 0.7 mm 2 mps 614 mmHg 70%
    14:00 +20°C° 1.7 mm 2 mps 613 mmHg 74%
    15:00 +19°C° 1.7 mm 2 mps 613 mmHg 79%
    16:00 +19°C° 1.7 mm 2 mps 612 mmHg 83%
    17:00 +19°C° 2.1 mm 1 mps 612 mmHg 86%
    18:00 +18°C° 2.1 mm 1 mps 612 mmHg 89%
    19:00 +16°C° 2.1 mm 1 mps 613 mmHg 93%
    20:00 +16°C° 2 mm 1 mps 613 mmHg 93%
    21:00 +16°C° 2 mm 1 mps 613 mmHg 94%
    22:00 +16°C° 2 mm 1 mps 613 mmHg 94%
    23:00 +15°C° 2.1 mm 1 mps 613 mmHg 95%
    Show more